[[{"header":{"parameterUnit":"m.s-1","parameterCategory":1,"la1":30.2991,"la2":30.254,"lo1":-89.0895,"lo2":-89.0444,"dy":0.0017,"dx":0.0017,"nx":28,"ny":28,"refTime":"2023-09-22T21:00:00:Z","depth":0,"parameterNumber":2,"parameterNumberName":"U-component_of_WINDS"},"data":[0,0,0,0,0,0,0,0,0,0,0,0,0,0,0,0,0,0,0,0,0,0,0,0,0,0,0,0,0,0,0,0,0,0,0,0,0,0,0,0,0,0,0,0,0,0,0,0,0,0,0,0,0,0,0,0,0,0,-0.1516,-0.1515,0,-0.1456,-0.1455,-0.1455,-0.1411,-0.1411,-0.1411,-0.141,-0.1349,-0.1348,-0.1346,0,0,0,0,0,0,0,0,0,0,0,0,0,-0.1594,-0.1593,-0.1516,-0.1515,-0.1514,-0.1456,-0.1455,-0.1454,-0.1411,-0.1411,-0.1411,-0.141,-0.1349,-0.1348,-0.1346,0,0,0,0,0,0,0,0,0,0,0,0,0,-0.155,-0.1592,-0.1516,-0.1486,-0.1483,-0.1456,-0.1455,-0.1454,-0.1412,-0.1411,-0.1411,-0.141,-0.135,-0.1348,-0.1346,-0.1345,0,0,-0.134,-0.1339,0,0,0,0,0,0,0,0,-0.1552,-0.1547,-0.1491,-0.1488,-0.1484,-0.1441,-0.146,-0.1417,-0.1412,-0.1439,-0.141,-0.141,-0.138,-0.1375,-0.1365,-0.1342,-0.1339,-0.134,-0.1339,-0.1338,-0.1337,0,0,0,0,0,0,0,-0.1555,-0.1549,-0.1492,-0.149,-0.1486,-0.1476,-0.1469,-0.1452,-0.1413,-0.1436,-0.1433,-0.1426,-0.1378,-0.1367,-0.1364,-0.1338,-0.134,-0.1338,-0.1337,-0.1336,-0.1311,-0.1312,0,0,0,0,0,0,-0.1563,-0.1552,-0.1494,-0.149,-0.1518,-0.1475,-0.1467,-0.1455,-0.1413,-0.1406,-0.1427,-0.1425,-0.1371,-0.1366,-0.1361,-0.1357,-0.1338,-0.1336,-0.1335,-0.1311,-0.1311,-0.1312,0,0,0,0,0,0,-0.1565,-0.1558,-0.1497,-0.152,-0.1512,-0.1474,-0.1461,-0.1454,-0.1444,-0.1406,-0.1399,-0.1423,-0.137,-0.1364,-0.1349,-0.1354,-0.1335,-0.1333,-0.131,-0.1311,-0.1312,-0.1349,0,0,0,0,0,0,-0.1567,-0.1559,-0.1558,-0.1521,-0.1511,-0.1486,-0.1461,-0.1454,-0.144,-0.1437,-0.1401,-0.1394,-0.1369,-0.1352,-0.1347,-0.1351,-0.1332,-0.1309,-0.131,-0.1311,-0.1347,-0.1351,-0.1354,0,0,0,0,0,-0.157,-0.1571,-0.1558,-0.1552,-0.1508,-0.1486,-0.148,-0.1452,-0.1441,-0.144,-0.1416,-0.1395,-0.1355,-0.1351,-0.1345,-0.1349,-0.1309,-0.131,-0.1311,-0.1345,-0.135,-0.1354,0,0,0,0,0,0,-0.161,-0.1565,-0.1551,-0.1539,-0.1517,-0.1479,-0.1476,-0.1457,-0.1437,-0.1435,-0.14,-0.1392,-0.1381,-0.1363,-0.136,-0.1345,-0.1329,-0.1329,-0.1358,-0.1362,-0.1365,-0.137,-0.133,0,0,0,0,0,-0.1617,-0.1603,-0.1565,-0.1558,-0.1548,-0.1514,-0.1503,-0.1483,-0.1458,-0.1448,-0.1423,-0.14,-0.1382,-0.1371,-0.1352,-0.1344,-0.1336,-0.1344,-0.1347,-0.1351,-0.1351,-0.1346,-0.1349,-0.1316,-0.1316,-0.1316,0,0,-0.1633,-0.1606,-0.1599,-0.1566,-0.1546,-0.1531,-0.1506,-0.1492,-0.1481,-0.1446,-0.1431,-0.1412,-0.1383,-0.1373,-0.1366,-0.1357,-0.1359,-0.1352,-0.1355,-0.1353,-0.1348,-0.1351,-0.1354,-0.1316,-0.1316,-0.1316,0,0,-0.1653,-0.1632,-0.1624,-0.1605,-0.1575,-0.1553,-0.1551,-0.1516,-0.1502,-0.1486,-0.146,-0.1446,-0.1416,-0.1397,-0.1384,-0.1398,-0.1378,-0.1393,-0.1411,-0.1407,-0.1409,-0.1412,-0.1417,-0.1419,-0.1393,-0.1393,-0.1393,0,-0.1676,-0.1653,-0.1623,-0.161,-0.1596,-0.1564,-0.1557,-0.1539,-0.1505,-0.1497,-0.1487,-0.1449,-0.1427,-0.1412,-0.1415,-0.1405,-0.1403,-0.1396,-0.1412,-0.1413,-0.1415,-0.142,-0.1422,-0.1395,-0.1395,-0.1395,-0.1395,0,-0.1682,-0.1667,-0.1665,-0.1633,-0.1619,-0.1609,-0.1577,-0.1567,-0.1548,-0.1527,-0.1512,-0.1485,-0.1461,-0.1456,-0.1437,-0.1438,-0.1433,-0.1418,-0.1401,-0.1421,-0.1425,-0.1426,-0.1398,-0.1397,-0.1397,-0.1396,0,0,-0.1726,-0.1677,-0.1677,-0.1662,-0.1627,-0.1615,-0.1604,-0.158,-0.1572,-0.155,-0.154,-0.1515,-0.1502,-0.1486,-0.1466,-0.1462,-0.1475,-0.1447,-0.1446,-0.1454,-0.1475,-0.1486,-0.1489,-0.1463,-0.1463,-0.1463,-0.1477,0,-0.1741,-0.1719,-0.1692,-0.1679,-0.1665,-0.1635,-0.1625,-0.1603,-0.1583,-0.1568,-0.1547,-0.153,-0.1513,-0.1503,-0.1498,-0.1475,-0.1479,-0.1474,-0.1453,-0.1453,-0.1461,-0.1491,-0.1503,-0.1517,-0.1479,-0.1479,-0.1479,0,-0.1755,-0.1735,-0.1721,-0.1688,-0.1681,-0.1673,-0.1649,-0.1635,-0.161,-0.1596,-0.1579,-0.1557,-0.1544,-0.153,-0.1512,-0.1509,-0.1499,-0.1486,-0.1486,-0.1483,-0.1467,-0.1489,-0.1521,-0.1524,-0.1481,-0.1481,-0.1481,0,-0.1789,-0.1757,-0.1745,-0.1733,-0.1694,-0.1689,-0.1673,-0.1647,-0.1635,-0.1614,-0.1606,-0.1585,-0.1573,-0.1557,-0.153,-0.1521,-0.1515,-0.1498,-0.1503,-0.1504,-0.1503,-0.1504,-0.1535,-0.1497,-0.1497,-0.1497,-0.1497,0,-0.1808,-0.1801,-0.176,-0.1752,-0.1743,-0.1712,-0.1705,-0.1685,-0.1663,-0.1651,-0.1624,-0.1614,-0.1579,-0.1565,-0.1544,-0.1532,-0.1527,-0.1516,-0.151,-0.1518,-0.152,-0.1511,-0.151,-0.1497,-0.1497,-0.1497,-0.1497,0,-0.1844,-0.1816,-0.18,-0.1765,-0.1756,-0.1751,-0.1721,-0.1713,-0.1691,-0.1677,-0.1672,-0.1639,-0.1622,-0.1593,-0.1567,-0.1553,-0.1545,-0.1536,-0.1554,-0.1551,-0.1558,-0.1558,-0.1585,-0.1587,-0.1548,-0.1548,-0.1549,0,-0.1858,-0.1852,-0.1816,-0.1806,-0.1791,-0.1775,-0.1763,-0.1732,-0.1721,-0.1692,-0.1687,-0.1667,-0.1649,-0.1623,-0.1596,-0.1576,-0.1567,-0.1577,-0.1563,-0.1572,-0.1567,-0.1568,-0.1567,-0.1581,-0.1581,-0.1582,-0.1582,0,-0.1887,-0.1873,-0.1856,-0.1834,-0.182,-0.1801,-0.1782,-0.1775,-0.1741,-0.1729,-0.171,-0.1697,-0.167,-0.1651,-0.1627,-0.1611,-0.1591,-0.1587,-0.1587,-0.1595,-0.1606,-0.1601,-0.1563,-0.1586,-0.1586,-0.1586,-0.1585,-0.1585,-0.1912,-0.1905,-0.1879,-0.1861,-0.1843,-0.1825,-0.1816,-0.1794,-0.1778,-0.1754,-0.1737,-0.172,-0.1695,-0.1661,-0.1646,-0.1632,-0.1624,-0.1624,-0.1624,-0.1625,-0.1628,-0.1608,-0.1628,-0.1628,-0.1628,-0.1627,-0.1627,0,-0.1939,-0.1921,-0.1905,-0.1878,-0.1864,-0.1847,-0.1824,-0.1814,-0.1799,-0.1777,-0.1761,-0.174,-0.1721,-0.1694,-0.1674,-0.1668,-0.1658,-0.1664,-0.1664,-0.166,-0.1637,-0.1639,-0.1672,-0.1672,-0.1672,-0.1672,-0.1672,-0.1672,-0.1952,-0.194,-0.1924,-0.1902,-0.1884,-0.1867,-0.1855,-0.1839,-0.1822,-0.18,-0.1784,-0.1767,-0.1743,-0.1721,-0.1703,-0.1696,-0.169,-0.1698,-0.1688,-0.1666,-0.1662,-0.1658,-0.166,-0.1697,-0.1697,-0.1713,-0.1713,-0.1713]},{"header":{"parameterUnit":"m.s-1","parameterCategory":1,"la1":30.2991,"la2":30.254,"lo1":-89.0895,"lo2":-89.0444,"dy":0.0017,"dx":0.0017,"nx":28,"ny":28,"refTime":"2023-09-22T21:00:00:Z","depth":0,"parameterNumber":3,"parameterNumberName":"V-component_of_WINDS"},"data":[0,0,0,0,0,0,0,0,0,0,0,0,0,0,0,0,0,0,0,0,0,0,0,0,0,0,0,0,0,0,0,0,0,0,0,0,0,0,0,0,0,0,0,0,0,0,0,0,0,0,0,0,0,0,0,0,0,0,2.3534,2.3534,0,2.3477,2.3477,2.3476,2.3479,2.348,2.3481,2.3482,2.3417,2.3415,2.3412,0,0,0,0,0,0,0,0,0,0,0,0,0,2.3639,2.3637,2.3534,2.3534,2.3533,2.3478,2.3477,2.3476,2.3479,2.348,2.3481,2.3482,2.3418,2.3415,2.3412,0,0,0,0,0,0,0,0,0,0,0,0,0,2.3589,2.3637,2.3534,2.3528,2.3527,2.3478,2.3477,2.3476,2.3479,2.348,2.3481,2.3482,2.3419,2.3416,2.3412,2.3364,0,0,2.34,2.3399,0,0,0,0,0,0,0,0,2.3592,2.3585,2.353,2.3528,2.3527,2.3487,2.349,2.3438,2.3478,2.3497,2.3482,2.3483,2.3439,2.3434,2.342,2.3361,2.3358,2.34,2.3398,2.3396,2.3395,0,0,0,0,0,0,0,2.3595,2.3588,2.3512,2.3529,2.3527,2.3526,2.352,2.348,2.3461,2.3495,2.3495,2.3489,2.3438,2.3424,2.3419,2.3357,2.34,2.3397,2.3395,2.3393,2.3253,2.3252,0,0,0,0,0,0,2.3601,2.359,2.3513,2.351,2.3563,2.3523,2.3516,2.3498,2.3462,2.3458,2.3488,2.3489,2.343,2.3423,2.3416,2.3356,2.3396,2.3393,2.3391,2.3255,2.3253,2.3251,0,0,0,0,0,0,2.3603,2.3594,2.3516,2.355,2.354,2.352,2.3499,2.3497,2.3482,2.3456,2.3452,2.3477,2.343,2.3422,2.3377,2.3354,2.3391,2.3388,2.3256,2.3254,2.3252,2.3236,0,0,0,0,0,0,2.3606,2.3595,2.3578,2.355,2.3538,2.3479,2.3498,2.3495,2.3476,2.3477,2.3445,2.3441,2.3431,2.3382,2.3373,2.335,2.3385,2.3258,2.3255,2.3253,2.3239,2.3234,2.323,0,0,0,0,0,2.361,2.3575,2.3577,2.3568,2.3517,2.3478,2.3471,2.3462,2.3474,2.3456,2.3439,2.3442,2.3359,2.3378,2.3367,2.3342,2.326,2.3256,2.3253,2.3241,2.3235,2.323,0,0,0,0,0,0,2.3599,2.3571,2.3573,2.3529,2.3506,2.3478,2.3455,2.3456,2.3428,2.343,2.3418,2.341,2.3365,2.3349,2.3371,2.3293,2.331,2.3305,2.3305,2.3299,2.3294,2.3298,2.3382,0,0,0,0,0,2.3592,2.3565,2.3541,2.3503,2.3492,2.3476,2.3458,2.3453,2.3428,2.3418,2.3398,2.3372,2.334,2.3319,2.3288,2.3237,2.3229,2.3215,2.321,2.3206,2.3201,2.3171,2.3164,2.324,2.324,2.324,0,0,2.3576,2.3557,2.354,2.3501,2.3483,2.3452,2.3467,2.3435,2.3411,2.3412,2.3369,2.3353,2.3323,2.3275,2.3252,2.326,2.3178,2.3202,2.32,2.3196,2.3167,2.316,2.3153,2.3238,2.3238,2.3239,0,0,2.3531,2.3515,2.3482,2.3463,2.3436,2.3425,2.3417,2.3389,2.338,2.3336,2.3336,2.3307,2.3252,2.323,2.3212,2.3158,2.3158,2.3148,2.3124,2.3095,2.3089,2.3083,2.3062,2.3055,2.3144,2.3144,2.3144,0,2.3514,2.347,2.3464,2.3431,2.3412,2.3414,2.3378,2.336,2.3323,2.3309,2.332,2.325,2.323,2.3176,2.3163,2.3149,2.3137,2.3151,2.3091,2.3085,2.308,2.3059,2.3051,2.3142,2.3143,2.3143,2.3143,0,2.345,2.3419,2.3395,2.3361,2.334,2.3306,2.3292,2.3271,2.3268,2.3255,2.321,2.3186,2.3149,2.3136,2.3132,2.3081,2.3086,2.3094,2.311,2.3071,2.3052,2.3044,2.3141,2.3141,2.3141,2.3142,0,0,2.3396,2.3359,2.335,2.3334,2.3303,2.3278,2.3243,2.321,2.3191,2.3165,2.3134,2.3087,2.3094,2.3073,2.3066,2.3041,2.2997,2.3051,2.305,2.304,2.2936,2.293,2.2921,2.2998,2.2997,2.2995,2.2938,0,2.3346,2.3286,2.3279,2.3225,2.3195,2.3196,2.3165,2.3142,2.3129,2.31,2.3085,2.3052,2.3064,2.3051,2.3026,2.3008,2.2976,2.3012,2.2966,2.2964,2.2972,2.2911,2.2904,2.2851,2.293,2.2929,2.2928,0,2.3281,2.3254,2.3198,2.317,2.3157,2.313,2.3098,2.3071,2.3044,2.3036,2.3013,2.3009,2.297,2.299,2.2935,2.296,2.2941,2.2929,2.2927,2.292,2.2943,2.2901,2.2834,2.2826,2.2917,2.2917,2.2918,0,2.3244,2.3195,2.3154,2.3141,2.3108,2.3089,2.3074,2.3048,2.3028,2.2999,2.2985,2.2951,2.2932,2.2905,2.2892,2.2908,2.2837,2.2856,2.2827,2.2827,2.281,2.2811,2.2738,2.2801,2.2801,2.2801,2.2802,0,2.3189,2.3154,2.3138,2.3112,2.3072,2.3063,2.3023,2.3008,2.2985,2.2955,2.2954,2.2925,2.291,2.2878,2.2868,2.2822,2.2814,2.2805,2.2802,2.2804,2.2805,2.279,2.2792,2.2799,2.28,2.28,2.2801,0,2.3141,2.313,2.3085,2.3058,2.305,2.3022,2.2998,2.2972,2.2959,2.2921,2.2912,2.2891,2.2854,2.2839,2.2792,2.2785,2.2732,2.2733,2.2742,2.2741,2.2712,2.2714,2.2624,2.2611,2.2685,2.2684,2.2684,0,2.3106,2.3079,2.305,2.303,2.3015,2.2984,2.2964,2.2954,2.2932,2.2898,2.2876,2.2839,2.2809,2.2749,2.2729,2.2693,2.2691,2.2662,2.2686,2.2688,2.2688,2.2689,2.2686,2.2657,2.2657,2.2656,2.2656,0,2.3044,2.3039,2.3011,2.298,2.2956,2.293,2.2905,2.2889,2.2875,2.285,2.2813,2.279,2.2743,2.2705,2.2668,2.265,2.2649,2.2649,2.264,2.264,2.2646,2.2641,2.2728,2.265,2.2651,2.2651,2.2652,2.2652,2.3,2.2975,2.295,2.2918,2.2899,2.2875,2.2849,2.2834,2.2804,2.2766,2.2761,2.2721,2.2692,2.2643,2.2624,2.259,2.2597,2.2585,2.2581,2.2578,2.2575,2.2653,2.2583,2.2584,2.2584,2.2584,2.2584,0,2.2936,2.292,2.2891,2.2856,2.283,2.2834,2.2807,2.2784,2.2749,2.2724,2.2694,2.265,2.2614,2.2591,2.2553,2.2531,2.2529,2.2521,2.2522,2.2517,2.2572,2.2582,2.2523,2.2523,2.2523,2.2523,2.2523,2.2523,2.2899,2.2857,2.285,2.2797,2.2781,2.2743,2.2726,2.2704,2.2683,2.2635,2.2605,2.2591,2.2566,2.2526,2.2492,2.2486,2.2471,2.2462,2.2456,2.2507,2.2513,2.2519,2.2529,2.246,2.246,2.2404,2.2404,2.2403]}]]